Location: Newark
(49.1000°N, 0.4667°W)
Time: 10:46:33
(UTC+00:00)

BEESAT 3 - Pass Details

Date: 04 July 2020
Orbit: 482 x 522 km, 64.9° (Epoch: 10 August)

Event Time Altitude Azimuth Distance (km) Brightness Sun altitude
Rises 20:53:39 0° 183° (S) 2,626 ? -6.3°
Reaches altitude 10° 20:56:07 10° 169° (S) 1,748 ? -6.6°
Maximum altitude 20:59:14 23° 116° (ESE) 1,145 ? -6.9°
Drops below altitude 10° 21:02:23 10° 63° (ENE) 1,766 ? -7.3°
Sets 21:04:53 0° 49° (NE) 2,660 ? -7.5°
